DateTime, Accumulation (mm), Intensity (mm/hr), Interval_Days, Interval_Hours, Interval_Minutes 
2019-03-01 00:01:47, 0, 0, 0, 0, 6
2019-03-01 00:07:38, 6.71256e-06, 6.71256e-05, 0, 0, 6
2019-03-01 00:13:29, 6.69327e-06, 6.69327e-05, 0, 0, 6
2019-03-01 00:19:34, 0, 0, 0, 0, 6
2019-03-01 00:25:24, 0, 0, 0, 0, 6
2019-03-01 00:31:15, 0, 0, 0, 0, 6
2019-03-01 00:37:06, 0, 0, 0, 0, 6
2019-03-01 00:42:57, 0, 0, 0, 0, 6
2019-03-01 00:48:47, 0, 0, 0, 0, 6
2019-03-01 00:54:37, 0, 0, 0, 0, 6
2019-03-01 01:00:28, 0, 0, 0, 0, 6
2019-03-01 01:06:19, 0, 0, 0, 0, 6
2019-03-01 01:12:09, 0, 0, 0, 0, 6
2019-03-01 01:18:13, 0, 0, 0, 0, 6
2019-03-01 01:24:03, 0, 0, 0, 0, 6
2019-03-01 01:29:54, 0, 0, 0, 0, 6
2019-03-01 01:35:45, 0, 0, 0, 0, 6
2019-03-01 01:41:36, 0, 0, 0, 0, 6
2019-03-01 01:47:27, 0, 0, 0, 0, 6
2019-03-01 01:53:18, 0, 0, 0, 0, 6
2019-03-01 01:59:09, 0, 0, 0, 0, 6
2019-03-01 02:04:59, 0, 0, 0, 0, 6
2019-03-01 02:10:50, 0, 0, 0, 0, 6
2019-03-01 02:16:55, 0, 0, 0, 0, 6
2019-03-01 02:22:44, 0, 0, 0, 0, 6
2019-03-01 02:28:34, 0, 0, 0, 0, 6
2019-03-01 02:34:24, 0, 0, 0, 0, 6
2019-03-01 02:40:15, 0, 0, 0, 0, 6
2019-03-01 02:46:06, 0, 0, 0, 0, 6
2019-03-01 02:51:58, 0, 0, 0, 0, 6
2019-03-01 02:57:49, 0, 0, 0, 0, 6
2019-03-01 03:03:40, 0, 0, 0, 0, 6
2019-03-01 03:09:31, 0, 0, 0, 0, 6
2019-03-01 03:15:35, 0, 0, 0, 0, 6
2019-03-01 03:21:24, 0, 0, 0, 0, 6
2019-03-01 03:27:15, 0, 0, 0, 0, 6
2019-03-01 03:33:06, 0, 0, 0, 0, 6
2019-03-01 03:38:57, 0, 0, 0, 0, 6
2019-03-01 03:44:48, 0, 0, 0, 0, 6
2019-03-01 03:50:39, 0, 0, 0, 0, 6
2019-03-01 03:56:30, 0, 0, 0, 0, 6
2019-03-01 04:02:21, 0, 0, 0, 0, 6
2019-03-01 04:08:12, 0, 0, 0, 0, 6
2019-03-01 04:14:03, 0, 0, 0, 0, 6
2019-03-01 04:20:07, 0, 0, 0, 0, 6
2019-03-01 04:25:56, 0, 0, 0, 0, 6
2019-03-01 04:31:47, 0, 0, 0, 0, 6
2019-03-01 04:37:38, 0, 0, 0, 0, 6
2019-03-01 04:43:28, 0, 0, 0, 0, 6
2019-03-01 04:49:19, 0, 0, 0, 0, 6
2019-03-01 04:55:10, 0, 0, 0, 0, 6
2019-03-01 05:01:01, 0, 0, 0, 0, 6
2019-03-01 05:06:51, 0, 0, 0, 0, 6
2019-03-01 05:12:41, 0, 0, 0, 0, 6
2019-03-01 05:18:45, 0, 0, 0, 0, 6
2019-03-01 05:24:33, 0, 0, 0, 0, 6
2019-03-01 05:30:24, 0, 0, 0, 0, 6
2019-03-01 05:36:15, 0, 0, 0, 0, 6
2019-03-01 05:42:05, 0, 0, 0, 0, 6
2019-03-01 05:47:56, 0, 0, 0, 0, 6
2019-03-01 05:53:46, 0, 0, 0, 0, 6
2019-03-01 05:59:37, 0, 0, 0, 0, 6
2019-03-01 06:05:27, 0, 0, 0, 0, 6
2019-03-01 06:11:18, 0, 0, 0, 0, 6
2019-03-01 06:17:21, 0, 0, 0, 0, 6
2019-03-01 06:23:11, 0, 0, 0, 0, 6
2019-03-01 06:29:02, 0, 0, 0, 0, 6
2019-03-01 06:34:52, 0, 0, 0, 0, 6
2019-03-01 06:40:44, 0, 0, 0, 0, 6
2019-03-01 06:46:35, 0, 0, 0, 0, 6
2019-03-01 06:52:25, 0, 0, 0, 0, 6
2019-03-01 06:58:16, 0, 0, 0, 0, 6
2019-03-01 07:04:07, 2.646e-06, 2.646e-05, 0, 0, 6
2019-03-01 07:09:58, 2.646e-06, 2.646e-05, 0, 0, 6
2019-03-01 07:16:02, 0, 0, 0, 0, 6
2019-03-01 07:21:51, 0, 0, 0, 0, 6
2019-03-01 07:27:42, 0, 0, 0, 0, 6
2019-03-01 07:33:32, 0, 0, 0, 0, 6
2019-03-01 07:39:23, 1.0766e-05, 0.00010766, 0, 0, 6
2019-03-01 07:45:13, 2.78805e-06, 2.78805e-05, 0, 0, 6
2019-03-01 07:51:04, 0, 0, 0, 0, 6
2019-03-01 07:56:55, 0, 0, 0, 0, 6
2019-03-01 08:02:46, 0, 0, 0, 0, 6
2019-03-01 08:08:36, 0, 0, 0, 0, 6
2019-03-01 08:14:26, 0, 0, 0, 0, 6
2019-03-01 08:20:31, 0, 0, 0, 0, 6
2019-03-01 08:26:20, 0, 0, 0, 0, 6
2019-03-01 08:32:11, 0, 0, 0, 0, 6
2019-03-01 08:38:02, 0, 0, 0, 0, 6
2019-03-01 08:43:53, 0, 0, 0, 0, 6
2019-03-01 08:49:44, 0, 0, 0, 0, 6
2019-03-01 08:55:35, 0, 0, 0, 0, 6
2019-03-01 09:01:26, 0, 0, 0, 0, 6
2019-03-01 09:07:17, 0, 0, 0, 0, 6
2019-03-01 09:13:07, 0, 0, 0, 0, 6
2019-03-01 09:19:11, 0, 0, 0, 0, 6
2019-03-01 09:25:00, 0, 0, 0, 0, 6
2019-03-01 09:30:50, 0, 0, 0, 0, 6
2019-03-01 09:36:41, 0, 0, 0, 0, 6
2019-03-01 09:42:31, 0, 0, 0, 0, 6
2019-03-01 09:48:22, 0, 0, 0, 0, 6
2019-03-01 09:54:12, 0, 0, 0, 0, 6
2019-03-01 10:00:03, 0, 0, 0, 0, 6
2019-03-01 10:05:54, 0, 0, 0, 0, 6
2019-03-01 10:11:46, 0, 0, 0, 0, 6
2019-03-01 10:17:50, 0, 0, 0, 0, 6
2019-03-01 10:23:39, 0, 0, 0, 0, 6
2019-03-01 10:29:30, 0, 0, 0, 0, 6
2019-03-01 10:35:22, 7.67551e-06, 7.67551e-05, 0, 0, 6
2019-03-01 10:41:14, 2.71272e-05, 0.000271272, 0, 0, 6
2019-03-01 10:47:05, 4.21996e-05, 0.000421996, 0, 0, 6
2019-03-01 10:52:56, 1.08626e-05, 0.000108626, 0, 0, 6
2019-03-01 10:58:47, 5.50955e-06, 5.50955e-05, 0, 0, 6
2019-03-01 11:04:37, 2.85543e-06, 2.85543e-05, 0, 0, 6
2019-03-01 11:10:28, 0, 0, 0, 0, 6
2019-03-01 11:16:31, 3.67782e-06, 3.67782e-05, 0, 0, 6
2019-03-01 11:22:20, 5.58303e-06, 5.58303e-05, 0, 0, 6
2019-03-01 11:28:11, 0, 0, 0, 0, 6
2019-03-01 11:34:02, 0, 0, 0, 0, 6
2019-03-01 11:39:53, 0, 0, 0, 0, 6
2019-03-01 11:45:43, 0, 0, 0, 0, 6
2019-03-01 11:51:34, 0, 0, 0, 0, 6
2019-03-01 11:57:26, 0, 0, 0, 0, 6
2019-03-01 12:03:16, 0, 0, 0, 0, 6
2019-03-01 12:09:07, 0, 0, 0, 0, 6
2019-03-01 12:14:58, 0, 0, 0, 0, 6
2019-03-01 12:21:02, 0, 0, 0, 0, 6
2019-03-01 12:26:52, 0, 0, 0, 0, 6
2019-03-01 12:32:43, 0, 0, 0, 0, 6
2019-03-01 12:38:35, 0, 0, 0, 0, 6
2019-03-01 12:44:26, 0, 0, 0, 0, 6
2019-03-01 12:50:16, 0, 0, 0, 0, 6
2019-03-01 12:56:07, 0, 0, 0, 0, 6
2019-03-01 13:01:59, 0, 0, 0, 0, 6
2019-03-01 13:07:49, 0, 0, 0, 0, 6
2019-03-01 13:13:41, 0, 0, 0, 0, 6
2019-03-01 13:19:46, 0, 0, 0, 0, 6
2019-03-01 13:25:36, 0, 0, 0, 0, 6
2019-03-01 13:31:28, 0, 0, 0, 0, 6
2019-03-01 13:37:20, 0, 0, 0, 0, 6
2019-03-01 13:43:11, 0, 0, 0, 0, 6
2019-03-01 13:49:02, 0, 0, 0, 0, 6
2019-03-01 13:54:54, 0, 0, 0, 0, 6
2019-03-01 14:00:46, 0, 0, 0, 0, 6
2019-03-01 14:06:37, 0, 0, 0, 0, 6
2019-03-01 14:12:29, 0, 0, 0, 0, 6
2019-03-01 14:18:33, 0, 0, 0, 0, 6
2019-03-01 14:24:23, 0, 0, 0, 0, 6
2019-03-01 14:30:14, 0, 0, 0, 0, 6
2019-03-01 14:36:05, 0, 0, 0, 0, 6
2019-03-01 14:41:56, 0, 0, 0, 0, 6
2019-03-01 14:47:47, 0, 0, 0, 0, 6
2019-03-01 14:53:38, 0, 0, 0, 0, 6
2019-03-01 14:59:29, 0, 0, 0, 0, 6
2019-03-01 15:05:20, 0, 0, 0, 0, 6
2019-03-01 15:11:11, 0, 0, 0, 0, 6
2019-03-01 15:17:16, 0, 0, 0, 0, 6
2019-03-01 15:23:05, 0, 0, 0, 0, 6
2019-03-01 15:28:55, 0, 0, 0, 0, 6
2019-03-01 15:34:45, 0, 0, 0, 0, 6
2019-03-01 15:40:36, 0, 0, 0, 0, 6
2019-03-01 15:46:27, 0, 0, 0, 0, 6
2019-03-01 15:52:18, 0, 0, 0, 0, 6
2019-03-01 15:58:10, 0, 0, 0, 0, 6
2019-03-01 16:04:01, 0, 0, 0, 0, 6
2019-03-01 16:09:51, 0, 0, 0, 0, 6
2019-03-01 16:15:55, 0, 0, 0, 0, 6
2019-03-01 16:21:45, 0, 0, 0, 0, 6
2019-03-01 16:27:35, 0, 0, 0, 0, 6
2019-03-01 16:33:27, 0, 0, 0, 0, 6
2019-03-01 16:39:18, 0, 0, 0, 0, 6
2019-03-01 16:45:09, 0, 0, 0, 0, 6
2019-03-01 16:51:01, 0, 0, 0, 0, 6
2019-03-01 16:56:52, 0, 0, 0, 0, 6
2019-03-01 17:02:43, 0, 0, 0, 0, 6
2019-03-01 17:08:34, 0, 0, 0, 0, 6
2019-03-01 17:14:25, 0, 0, 0, 0, 6
2019-03-01 17:20:30, 3.17519e-06, 3.17519e-05, 0, 0, 6
2019-03-01 17:26:20, 3.04298e-06, 3.04298e-05, 0, 0, 6
2019-03-01 17:32:11, 0, 0, 0, 0, 6
2019-03-01 17:38:02, 0, 0, 0, 0, 6
2019-03-01 17:43:54, 0, 0, 0, 0, 6
2019-03-01 17:49:44, 0, 0, 0, 0, 6
2019-03-01 17:55:34, 0, 0, 0, 0, 6
2019-03-01 18:01:25, 0, 0, 0, 0, 6
2019-03-01 18:07:16, 0, 0, 0, 0, 6
2019-03-01 18:13:07, 0, 0, 0, 0, 6
2019-03-01 18:19:11, 0, 0, 0, 0, 6
2019-03-01 18:25:00, 0, 0, 0, 0, 6
2019-03-01 18:30:51, 0, 0, 0, 0, 6
2019-03-01 18:36:42, 0, 0, 0, 0, 6
2019-03-01 18:42:32, 0, 0, 0, 0, 6
2019-03-01 18:48:23, 0, 0, 0, 0, 6
2019-03-01 18:54:13, 0, 0, 0, 0, 6
2019-03-01 19:00:05, 0, 0, 0, 0, 6
2019-03-01 19:05:55, 0, 0, 0, 0, 6
2019-03-01 19:11:46, 0, 0, 0, 0, 6
2019-03-01 19:17:49, 0, 0, 0, 0, 6
2019-03-01 19:23:38, 0, 0, 0, 0, 6
2019-03-01 19:29:30, 0, 0, 0, 0, 6
2019-03-01 19:35:21, 0, 0, 0, 0, 6
2019-03-01 19:41:12, 0, 0, 0, 0, 6
2019-03-01 19:47:04, 0, 0, 0, 0, 6
2019-03-01 19:52:55, 0, 0, 0, 0, 6
2019-03-01 19:58:46, 0, 0, 0, 0, 6
2019-03-01 20:04:37, 0, 0, 0, 0, 6
2019-03-01 20:10:29, 0, 0, 0, 0, 6
2019-03-01 20:16:34, 3.19033e-06, 3.19033e-05, 0, 0, 6
2019-03-01 20:22:23, 0.000234978, 0.00234978, 0, 0, 6
2019-03-01 20:28:15, 0.0012346, 0.012346, 0, 0, 6
2019-03-01 20:34:07, 0.00457111, 0.0457111, 0, 0, 6
2019-03-01 20:39:58, 0.00732107, 0.0732107, 0, 0, 6
2019-03-01 20:45:50, 0.0074164, 0.074164, 0, 0, 6
2019-03-01 20:51:41, 0.00577876, 0.0577876, 0, 0, 6
2019-03-01 20:57:33, 0.00346172, 0.0346172, 0, 0, 6
2019-03-01 21:03:24, 0.00124302, 0.0124302, 0, 0, 6
2019-03-01 21:09:16, 0.000191461, 0.00191461, 0, 0, 6
2019-03-01 21:15:08, 8.55054e-06, 8.55054e-05, 0, 0, 6
2019-03-01 21:21:13, 0, 0, 0, 0, 6
2019-03-01 21:27:03, 0, 0, 0, 0, 6
2019-03-01 21:32:56, 0, 0, 0, 0, 6
2019-03-01 21:38:48, 0, 0, 0, 0, 6
2019-03-01 21:44:41, 0, 0, 0, 0, 6
2019-03-01 21:50:33, 2.93251e-05, 0.000293251, 0, 0, 6
2019-03-01 21:56:26, 5.94906e-05, 0.000594906, 0, 0, 6
2019-03-01 22:02:18, 4.81103e-05, 0.000481103, 0, 0, 6
2019-03-01 22:08:11, 5.63691e-05, 0.000563691, 0, 0, 6
2019-03-01 22:14:03, 2.7616e-05, 0.00027616, 0, 0, 6
2019-03-01 22:20:09, 2.78089e-06, 2.78089e-05, 0, 0, 6
2019-03-01 22:26:01, 3.63633e-06, 3.63633e-05, 0, 0, 6
2019-03-01 22:31:58, 3.36792e-06, 3.36792e-05, 0, 0, 6
2019-03-01 22:37:53, 0, 0, 0, 0, 6
2019-03-01 22:43:48, 0, 0, 0, 0, 6
2019-03-01 22:49:44, 0, 0, 0, 0, 6
2019-03-01 22:55:39, 3.98459e-06, 3.98459e-05, 0, 0, 6
2019-03-01 23:01:35, 0.00010031, 0.0010031, 0, 0, 6
2019-03-01 23:07:31, 0.000950196, 0.00950196, 0, 0, 6
2019-03-01 23:13:27, 0.00234756, 0.0234756, 0, 0, 6
2019-03-01 23:19:36, 0.00403471, 0.0403471, 0, 0, 6
2019-03-01 23:25:27, 0.00519186, 0.0519186, 0, 0, 6
2019-03-01 23:31:20, 0.00656187, 0.0656187, 0, 0, 6
2019-03-01 23:37:13, 0.00793607, 0.0793607, 0, 0, 6
2019-03-01 23:43:06, 0.00931652, 0.0931652, 0, 0, 6
2019-03-01 23:48:58, 0.0112474, 0.112474, 0, 0, 6
2019-03-02 00:00:45, 0.0190408, 0.190408, 0, 0, 6
2019-03-02 00:06:38, 0.0228852, 0.228852, 0, 0, 6
2019-03-02 00:12:31, 0.0250378, 0.250378, 0, 0, 6
2019-03-02 00:18:36, 0.0228893, 0.228893, 0, 0, 6
2019-03-02 00:24:28, 0.0200747, 0.200747, 0, 0, 6
2019-03-02 00:30:21, 0.0211328, 0.211328, 0, 0, 6
2019-03-02 00:36:14, 0.0180725, 0.180725, 0, 0, 6
2019-03-02 00:42:07, 0.0140589, 0.140589, 0, 0, 6
2019-03-02 00:48:00, 0.0130942, 0.130942, 0, 0, 6
2019-03-02 00:53:53, 0.0136822, 0.136822, 0, 0, 6
2019-03-02 00:59:47, 0.0146809, 0.146809, 0, 0, 6
2019-03-02 01:05:39, 0.015003, 0.15003, 0, 0, 6
2019-03-02 01:11:32, 0.0138629, 0.138629, 0, 0, 6
2019-03-02 01:17:38, 0.01274, 0.1274, 0, 0, 6
2019-03-02 01:23:29, 0.0112673, 0.112673, 0, 0, 6
2019-03-02 01:29:22, 0.0127267, 0.127267, 0, 0, 6
2019-03-02 01:35:14, 0.015756, 0.15756, 0, 0, 6
2019-03-02 01:41:06, 0.0187462, 0.187462, 0, 0, 6
2019-03-02 01:46:58, 0.0173655, 0.173655, 0, 0, 6
2019-03-02 01:52:50, 0.0126102, 0.126102, 0, 0, 6
2019-03-02 01:58:41, 0.00849009, 0.0849009, 0, 0, 6
2019-03-02 02:04:34, 0.00546933, 0.0546933, 0, 0, 6
2019-03-02 02:10:27, 0.0032507, 0.032507, 0, 0, 6
2019-03-02 02:16:33, 0.00313293, 0.0313293, 0, 0, 6
2019-03-02 02:22:23, 0.0038028, 0.038028, 0, 0, 6
2019-03-02 02:28:13, 0.00434491, 0.0434491, 0, 0, 6
2019-03-02 02:34:05, 0.00564027, 0.0564027, 0, 0, 6
2019-03-02 02:39:57, 0.0100066, 0.100066, 0, 0, 6
2019-03-02 02:45:48, 0.0162321, 0.162321, 0, 0, 6
2019-03-02 02:51:40, 0.0265292, 0.265292, 0, 0, 6
2019-03-02 02:57:32, 0.0399682, 0.399682, 0, 0, 6
2019-03-02 03:03:23, 0.0487002, 0.487002, 0, 0, 6
2019-03-02 03:09:14, 0.0465525, 0.465525, 0, 0, 6
2019-03-02 03:15:05, 0.0339933, 0.339933, 0, 0, 6
2019-03-02 03:21:10, 0.0178848, 0.178848, 0, 0, 6
2019-03-02 03:27:00, 0.00475658, 0.0475658, 0, 0, 6
2019-03-02 03:32:52, 0.000680512, 0.00680512, 0, 0, 6
2019-03-02 03:38:43, 0.000369951, 0.00369951, 0, 0, 6
2019-03-02 03:44:34, 0.000461718, 0.00461718, 0, 0, 6
2019-03-02 03:50:26, 0.000304721, 0.00304721, 0, 0, 6
2019-03-02 03:56:17, 0.000184241, 0.00184241, 0, 0, 6
2019-03-02 04:02:09, 0.000178886, 0.00178886, 0, 0, 6
2019-03-02 04:08:00, 6.33097e-06, 6.33097e-05, 0, 0, 6
2019-03-02 04:13:51, 4.6801e-05, 0.00046801, 0, 0, 6
2019-03-02 04:19:56, 0.000251304, 0.00251304, 0, 0, 6
2019-03-02 04:25:45, 0.000653547, 0.00653547, 0, 0, 6
2019-03-02 04:31:35, 0.00129892, 0.0129892, 0, 0, 6
2019-03-02 04:37:26, 0.00131355, 0.0131355, 0, 0, 6
2019-03-02 04:43:18, 0.000822375, 0.00822375, 0, 0, 6
2019-03-02 04:49:08, 0.000315236, 0.00315236, 0, 0, 6
2019-03-02 04:54:59, 8.40808e-05, 0.000840808, 0, 0, 6
2019-03-02 05:00:50, 7.3581e-05, 0.00073581, 0, 0, 6
2019-03-02 05:06:41, 2.78656e-05, 0.000278656, 0, 0, 6
2019-03-02 05:12:32, 1.58403e-05, 0.000158403, 0, 0, 6
2019-03-02 05:18:37, 1.88893e-05, 0.000188893, 0, 0, 6
2019-03-02 05:24:26, 8.46003e-06, 8.46003e-05, 0, 0, 6
2019-03-02 05:30:16, 1.45197e-05, 0.000145197, 0, 0, 6
2019-03-02 05:36:07, 3.58925e-05, 0.000358925, 0, 0, 6
2019-03-02 05:41:58, 3.10584e-05, 0.000310584, 0, 0, 6
2019-03-02 05:47:50, 0, 0, 0, 0, 6
2019-03-02 05:53:42, 0, 0, 0, 0, 6
2019-03-02 05:59:33, 3.17222e-05, 0.000317222, 0, 0, 6
2019-03-02 06:05:25, 0.000472847, 0.00472847, 0, 0, 6
2019-03-02 06:11:16, 0.0011151, 0.011151, 0, 0, 6
2019-03-02 06:17:20, 0.00119864, 0.0119864, 0, 0, 6
2019-03-02 06:23:09, 0.00094948, 0.0094948, 0, 0, 6
2019-03-02 06:29:00, 0.00130989, 0.0130989, 0, 0, 6
2019-03-02 06:34:51, 0.00169996, 0.0169996, 0, 0, 6
2019-03-02 06:40:43, 0.00162212, 0.0162212, 0, 0, 6
2019-03-02 06:46:33, 0.00122917, 0.0122917, 0, 0, 6
2019-03-02 06:52:24, 0.000893525, 0.00893525, 0, 0, 6
2019-03-02 06:58:16, 0.000929285, 0.00929285, 0, 0, 6
2019-03-02 07:04:06, 0.00094549, 0.0094549, 0, 0, 6
2019-03-02 07:09:57, 0.00099309, 0.0099309, 0, 0, 6
2019-03-02 07:16:03, 0.000935332, 0.00935332, 0, 0, 6
2019-03-02 07:21:52, 0.00074388, 0.0074388, 0, 0, 6
2019-03-02 07:27:43, 0.000590393, 0.00590393, 0, 0, 6
2019-03-02 07:33:33, 0.000267873, 0.00267873, 0, 0, 6
2019-03-02 07:39:25, 0.000142661, 0.00142661, 0, 0, 6
2019-03-02 07:45:16, 0.00023468, 0.0023468, 0, 0, 6
2019-03-02 07:51:06, 0.000384315, 0.00384315, 0, 0, 6
2019-03-02 07:56:58, 0.00064479, 0.0064479, 0, 0, 6
2019-03-02 08:02:49, 0.00107871, 0.0107871, 0, 0, 6
2019-03-02 08:08:40, 0.00120708, 0.0120708, 0, 0, 6
2019-03-02 08:14:31, 0.000951587, 0.00951587, 0, 0, 6
2019-03-02 08:20:36, 0.00101977, 0.0101977, 0, 0, 6
2019-03-02 08:26:25, 0.00121725, 0.0121725, 0, 0, 6
2019-03-02 08:32:16, 0.00111401, 0.0111401, 0, 0, 6
2019-03-02 08:38:07, 0.000739256, 0.00739256, 0, 0, 6
2019-03-02 08:43:58, 0.000538229, 0.00538229, 0, 0, 6
2019-03-02 08:49:49, 0.000334456, 0.00334456, 0, 0, 6
2019-03-02 08:55:41, 0.000124587, 0.00124587, 0, 0, 6
2019-03-02 09:01:32, 3.15253e-05, 0.000315253, 0, 0, 6
2019-03-02 09:07:23, 2.06732e-05, 0.000206732, 0, 0, 6
2019-03-02 09:13:13, 1.5164e-05, 0.00015164, 0, 0, 6
2019-03-02 09:19:18, 0, 0, 0, 0, 6
2019-03-02 09:25:06, 0, 0, 0, 0, 6
2019-03-02 09:30:57, 0, 0, 0, 0, 6
2019-03-02 09:36:47, 5.67333e-06, 5.67333e-05, 0, 0, 6
2019-03-02 09:42:38, 5.73512e-06, 5.73512e-05, 0, 0, 6
2019-03-02 09:48:29, 0, 0, 0, 0, 6
2019-03-02 09:54:21, 0, 0, 0, 0, 6
2019-03-02 10:00:11, 2.57823e-06, 2.57823e-05, 0, 0, 6
2019-03-02 10:06:02, 2.5951e-06, 2.5951e-05, 0, 0, 6
2019-03-02 10:11:54, 2.65244e-06, 2.65244e-05, 0, 0, 6
2019-03-02 10:17:58, 2.74064e-06, 2.74064e-05, 0, 0, 6
2019-03-02 10:23:47, 0, 0, 0, 0, 6
2019-03-02 10:29:39, 0, 0, 0, 0, 6
2019-03-02 10:35:29, 0, 0, 0, 0, 6
2019-03-02 10:41:21, 0, 0, 0, 0, 6
2019-03-02 10:47:12, 0, 0, 0, 0, 6
2019-03-02 10:53:04, 0, 0, 0, 0, 6
2019-03-02 10:58:55, 0, 0, 0, 0, 6
2019-03-02 11:04:47, 0, 0, 0, 0, 6
2019-03-02 11:10:38, 0, 0, 0, 0, 6
2019-03-02 11:16:43, 2.80711e-06, 2.80711e-05, 0, 0, 6
2019-03-02 11:22:32, 2.72462e-06, 2.72462e-05, 0, 0, 6
2019-03-02 11:28:23, 0, 0, 0, 0, 6
2019-03-02 11:34:14, 0, 0, 0, 0, 6
2019-03-02 11:40:06, 0, 0, 0, 0, 6
2019-03-02 11:45:56, 0, 0, 0, 0, 6
2019-03-02 11:51:48, 0, 0, 0, 0, 6
2019-03-02 11:57:39, 0, 0, 0, 0, 6
2019-03-02 12:03:30, 0, 0, 0, 0, 6
2019-03-02 12:09:21, 0, 0, 0, 0, 6
2019-03-02 12:15:13, 9.89078e-06, 9.89078e-05, 0, 0, 6
2019-03-02 12:21:18, 1.02842e-05, 0.000102842, 0, 0, 6
2019-03-02 12:27:08, 0, 0, 0, 0, 6
2019-03-02 12:32:59, 0, 0, 0, 0, 6
2019-03-02 12:38:51, 0, 0, 0, 0, 6
2019-03-02 12:44:43, 0, 0, 0, 0, 6
2019-03-02 12:50:35, 4.08271e-05, 0.000408271, 0, 0, 6
2019-03-02 12:56:28, 0.000586516, 0.00586516, 0, 0, 6
2019-03-02 13:02:21, 0.00131419, 0.0131419, 0, 0, 6
2019-03-02 13:08:15, 0.00236275, 0.0236275, 0, 0, 6
2019-03-02 13:14:08, 0.00872515, 0.0872515, 0, 0, 6
2019-03-02 13:20:15, 0.0310381, 0.310381, 0, 0, 6
2019-03-02 13:26:07, 0.0661649, 0.661649, 0, 0, 6
2019-03-02 13:32:00, 0.101665, 1.016650, 0, 0, 6
2019-03-02 13:37:52, 0.118485, 1.184853, 0, 0, 6
2019-03-02 13:43:46, 0.118595, 1.185946, 0, 0, 6
2019-03-02 13:49:38, 0.0974704, 0.974704, 0, 0, 6
2019-03-02 13:55:31, 0.0654803, 0.654803, 0, 0, 6
2019-03-02 14:01:25, 0.0424069, 0.424069, 0, 0, 6
2019-03-02 14:07:18, 0.031819, 0.31819, 0, 0, 6
2019-03-02 14:13:11, 0.0260671, 0.260671, 0, 0, 6
2019-03-02 14:19:18, 0.0268865, 0.268865, 0, 0, 6
2019-03-02 14:25:10, 0.0480565, 0.480565, 0, 0, 6
2019-03-02 14:31:04, 0.091312, 0.91312, 0, 0, 6
2019-03-02 14:36:58, 0.128281, 1.282808, 0, 0, 6
2019-03-02 14:42:52, 0.134795, 1.347948, 0, 0, 6
2019-03-02 14:48:46, 0.11396, 1.139596, 0, 0, 6
2019-03-02 14:54:40, 0.0961626, 0.961626, 0, 0, 6
2019-03-02 15:00:35, 0.0993074, 0.993074, 0, 0, 6
2019-03-02 15:06:30, 0.117095, 1.170948, 0, 0, 6
2019-03-02 15:12:24, 0.12845, 1.284500, 0, 0, 6
2019-03-02 15:18:31, 0.131578, 1.315777, 0, 0, 6
2019-03-02 15:24:24, 0.133749, 1.337489, 0, 0, 6
2019-03-02 15:30:18, 0.160515, 1.605145, 0, 0, 6
2019-03-02 15:36:11, 0.160227, 1.602274, 0, 0, 6
2019-03-02 15:42:04, 0.137886, 1.378863, 0, 0, 6
2019-03-02 15:47:59, 0.136383, 1.363832, 0, 0, 6
2019-03-02 15:53:52, 0.140511, 1.405106, 0, 0, 6
2019-03-02 15:59:45, 0.12065, 1.206501, 0, 0, 6
2019-03-02 16:05:38, 0.0843723, 0.843723, 0, 0, 6
2019-03-02 16:11:31, 0.0491628, 0.491628, 0, 0, 6
2019-03-02 16:17:38, 0.0225566, 0.225566, 0, 0, 6
2019-03-02 16:23:29, 0.0146055, 0.146055, 0, 0, 6
2019-03-02 16:29:22, 0.0176101, 0.176101, 0, 0, 6
2019-03-02 16:35:15, 0.0289831, 0.289831, 0, 0, 6
2019-03-02 16:41:08, 0.0354987, 0.354987, 0, 0, 6
2019-03-02 16:47:01, 0.0268326, 0.268326, 0, 0, 6
2019-03-02 16:52:55, 0.0167354, 0.167354, 0, 0, 6
2019-03-02 16:58:49, 0.0292209, 0.292209, 0, 0, 6
2019-03-02 17:04:42, 0.050616, 0.50616, 0, 0, 6
2019-03-02 17:10:36, 0.0709923, 0.709923, 0, 0, 6
2019-03-02 17:16:42, 0.105543, 1.055426, 0, 0, 6
2019-03-02 17:22:35, 0.121914, 1.219143, 0, 0, 6
2019-03-02 17:28:29, 0.118236, 1.182358, 0, 0, 6
2019-03-02 17:34:24, 0.100209, 1.002093, 0, 0, 6
2019-03-02 17:40:18, 0.0737725, 0.737725, 0, 0, 6
2019-03-02 17:46:12, 0.0635953, 0.635953, 0, 0, 6
2019-03-02 17:52:05, 0.0779506, 0.779506, 0, 0, 6
2019-03-02 17:57:59, 0.0965486, 0.965486, 0, 0, 6
2019-03-02 18:03:53, 0.142724, 1.427236, 0, 0, 6
2019-03-02 18:09:46, 0.147726, 1.477262, 0, 0, 6
2019-03-02 18:15:52, 0.0745392, 0.745392, 0, 0, 6
2019-03-02 18:21:43, 0.0143469, 0.143469, 0, 0, 6
2019-03-02 18:27:35, 0.000684708, 0.00684708, 0, 0, 6
2019-03-02 18:33:27, 0.000701745, 0.00701745, 0, 0, 6
2019-03-02 18:39:20, 0.00189444, 0.0189444, 0, 0, 6
2019-03-02 18:45:12, 0.00318949, 0.0318949, 0, 0, 6
2019-03-02 18:51:04, 0.00285573, 0.0285573, 0, 0, 6
2019-03-02 18:56:57, 0.0012995, 0.012995, 0, 0, 6
2019-03-02 19:02:48, 0.000186447, 0.00186447, 0, 0, 6
2019-03-02 19:08:40, 0, 0, 0, 0, 6
2019-03-02 19:14:33, 0, 0, 0, 0, 6
2019-03-02 19:20:38, 0, 0, 0, 0, 6
2019-03-02 19:26:29, 0, 0, 0, 0, 6
2019-03-02 19:32:20, 0, 0, 0, 0, 6
2019-03-02 19:38:13, 0, 0, 0, 0, 6
2019-03-02 19:44:05, 0, 0, 0, 0, 6
2019-03-02 19:49:57, 1.23476e-05, 0.000123476, 0, 0, 6
2019-03-02 19:55:49, 1.23908e-05, 0.000123908, 0, 0, 6
2019-03-02 20:01:42, 0.000351581, 0.00351581, 0, 0, 6
2019-03-02 20:07:34, 0.00250288, 0.0250288, 0, 0, 6
2019-03-02 20:13:25, 0.00497803, 0.0497803, 0, 0, 6
2019-03-02 20:19:31, 0.00633222, 0.0633222, 0, 0, 6
2019-03-02 20:25:21, 0.00552403, 0.0552403, 0, 0, 6
2019-03-02 20:31:12, 0.00234816, 0.0234816, 0, 0, 6
2019-03-02 20:37:04, 1.39948e-05, 0.000139948, 0, 0, 6
2019-03-02 20:42:56, 0, 0, 0, 0, 6
2019-03-02 20:48:49, 2.96449e-06, 2.96449e-05, 0, 0, 6
2019-03-02 20:54:41, 2.96386e-06, 2.96386e-05, 0, 0, 6
2019-03-02 21:00:32, 0, 0, 0, 0, 6
2019-03-02 21:06:25, 0, 0, 0, 0, 6
2019-03-02 21:12:17, 6.45327e-06, 6.45327e-05, 0, 0, 6
2019-03-02 21:18:23, 1.07741e-05, 0.000107741, 0, 0, 6
2019-03-02 21:24:13, 0, 0, 0, 0, 6
2019-03-02 21:30:06, 0, 0, 0, 0, 6
2019-03-02 21:35:58, 0, 0, 0, 0, 6
2019-03-02 21:41:50, 0, 0, 0, 0, 6
2019-03-02 21:47:42, 0, 0, 0, 0, 6
2019-03-02 21:53:35, 0, 0, 0, 0, 6
2019-03-02 21:59:29, 0, 0, 0, 0, 6
2019-03-02 22:05:21, 0, 0, 0, 0, 6
2019-03-02 22:11:13, 0, 0, 0, 0, 6
2019-03-02 22:17:20, 0, 0, 0, 0, 6
2019-03-02 22:23:09, 0, 0, 0, 0, 6
2019-03-02 22:29:00, 0, 0, 0, 0, 6
2019-03-02 22:34:52, 0, 0, 0, 0, 6
2019-03-02 22:40:43, 0, 0, 0, 0, 6
2019-03-02 22:46:35, 0, 0, 0, 0, 6
2019-03-02 22:52:28, 0, 0, 0, 0, 6
2019-03-02 22:58:19, 0, 0, 0, 0, 6
2019-03-02 23:04:10, 0, 0, 0, 0, 6
2019-03-02 23:10:02, 0, 0, 0, 0, 6
2019-03-02 23:16:06, 8.22721e-06, 8.22721e-05, 0, 0, 6
2019-03-02 23:21:56, 0, 0, 0, 0, 6
2019-03-02 23:27:49, 2.80619e-06, 2.80619e-05, 0, 0, 6
2019-03-02 23:33:40, 7.89879e-06, 7.89879e-05, 0, 0, 6
2019-03-02 23:39:33, 2.73825e-06, 2.73825e-05, 0, 0, 6
2019-03-02 23:45:26, 3.98174e-06, 3.98174e-05, 0, 0, 6
2019-03-02 23:51:19, 4.0168e-06, 4.0168e-05, 0, 0, 6
2019-03-03 00:03:05, 0, 0, 0, 0, 6
2019-03-03 00:08:58, 0, 0, 0, 0, 6
2019-03-03 00:14:50, 0, 0, 0, 0, 6
2019-03-03 00:20:56, 2.91612e-06, 2.91612e-05, 0, 0, 6
2019-03-03 00:26:47, 1.13893e-05, 0.000113893, 0, 0, 6
2019-03-03 00:32:40, 9.64724e-06, 9.64724e-05, 0, 0, 6
2019-03-03 00:38:32, 9.63851e-06, 9.63851e-05, 0, 0, 6
2019-03-03 00:44:25, 3.03083e-06, 3.03083e-05, 0, 0, 6
2019-03-03 00:50:17, 3.03012e-06, 3.03012e-05, 0, 0, 6
2019-03-03 00:56:09, 0, 0, 0, 0, 6
2019-03-03 01:02:01, 0, 0, 0, 0, 6
2019-03-03 01:07:53, 0, 0, 0, 0, 6
2019-03-03 01:13:46, 0, 0, 0, 0, 6
2019-03-03 01:19:52, 7.51379e-06, 7.51379e-05, 0, 0, 6
2019-03-03 01:25:43, 7.20332e-06, 7.20332e-05, 0, 0, 6
2019-03-03 01:31:35, 2.45667e-06, 2.45667e-05, 0, 0, 6
2019-03-03 01:37:28, 0, 0, 0, 0, 6
2019-03-03 01:43:21, 0, 0, 0, 0, 6
2019-03-03 01:49:14, 0, 0, 0, 0, 6
2019-03-03 01:55:07, 0, 0, 0, 0, 6
2019-03-03 02:01:00, 0, 0, 0, 0, 6
2019-03-03 02:06:53, 0, 0, 0, 0, 6
2019-03-03 02:12:47, 0, 0, 0, 0, 6
2019-03-03 02:18:53, 0, 0, 0, 0, 6
2019-03-03 02:24:45, 1.17425e-05, 0.000117425, 0, 0, 6
2019-03-03 02:30:39, 1.27582e-05, 0.000127582, 0, 0, 6
2019-03-03 02:36:31, 6.84088e-06, 6.84088e-05, 0, 0, 6
2019-03-03 02:42:24, 7.37674e-06, 7.37674e-05, 0, 0, 6
2019-03-03 02:48:17, 0, 0, 0, 0, 6
2019-03-03 02:54:09, 2.8348e-06, 2.8348e-05, 0, 0, 6
2019-03-03 03:00:02, 7.93192e-06, 7.93192e-05, 0, 0, 6
2019-03-03 03:05:54, 0, 0, 0, 0, 6
2019-03-03 03:11:48, 3.73366e-06, 3.73366e-05, 0, 0, 6
2019-03-03 03:17:54, 8.2676e-06, 8.2676e-05, 0, 0, 6
2019-03-03 03:23:45, 0, 0, 0, 0, 6
2019-03-03 03:29:38, 0, 0, 0, 0, 6
2019-03-03 03:35:31, 0, 0, 0, 0, 6
2019-03-03 03:41:23, 0, 0, 0, 0, 6
2019-03-03 03:47:16, 3.78002e-06, 3.78002e-05, 0, 0, 6
2019-03-03 03:53:08, 0, 0, 0, 0, 6
2019-03-03 03:59:01, 2.43072e-06, 2.43072e-05, 0, 0, 6
2019-03-03 04:04:54, 2.43072e-06, 2.43072e-05, 0, 0, 6
2019-03-03 04:10:46, 0, 0, 0, 0, 6
2019-03-03 04:16:53, 0, 0, 0, 0, 6
2019-03-03 04:22:43, 0, 0, 0, 0, 6
2019-03-03 04:28:35, 0, 0, 0, 0, 6
2019-03-03 04:34:28, 0, 0, 0, 0, 6
2019-03-03 04:40:20, 4.03155e-06, 4.03155e-05, 0, 0, 6
2019-03-03 04:46:12, 8.70439e-06, 8.70439e-05, 0, 0, 6
2019-03-03 04:52:04, 8.1233e-06, 8.1233e-05, 0, 0, 6
2019-03-03 04:57:56, 3.46695e-06, 3.46695e-05, 0, 0, 6
2019-03-03 05:03:49, 2.97415e-06, 2.97415e-05, 0, 0, 6